Regional Weather Roundup
Issued by NWS

Home | Current Version | Previous Version | Graphics & Text | Print | Product List | Glossary On
Versions: 1 2 3 4 5 6 7 8 9 10 11 12 13 14 15 16 17 18 19 20 21 22 23 24 25 26 27 28 29 30 31 32 33 34 35 36 37 38 39 40 41 42 43 44 45 46 47 48 49 50
000
ASUS43 KMPX 010601
RWRMN
WEATHER ROUNDUP FOR MINNESOTA
NATIONAL WEATHER SERVICE TWIN CITIES/CHANHASSEN MN
1200 AM CST SUN MAR 01 2015


NOTE: "FAIR" INDICATES FEW OR NO CLOUDS BELOW 12,000 FEET WITH NO
SIGNIFICANT WEATHER AND/OR OBSTRUCTIONS TO VISIBILITY. N/A MEANS
CURRENT SKY AND/OR WEATHER CONDITIONS ARE NOT AVAILABLE.

MNZ060>063-068>070-010700-
   Twin Cities Metro

CITY           SKY/WX    TMP DP  RH WIND       PRES   REMARKS
TWIN CITIES    MOCLDY    14   6  70 S9        30.30F WCI   2
6HR MIN TEMP:  12; 6HR MAX TEMP:  14;

ST PAUL        CLOUDY    12   6  77 SE8       30.33F WCI   0
CRYSTAL        PTCLDY    14   6  70 S9        30.28F WCI   2
BLAINE         PTCLDY    12   7  79 S8        30.28F WCI   1
EDEN PRAIRIE   CLEAR     12   6  77 S9        30.28F WCI   0
6HR MIN TEMP:  12; 6HR MAX TEMP:  14;

SOUTH ST PAUL  CLOUDY    14   6  73 S5        30.31F WCI   6
LAKE ELMO      FLURRIES  12   7  79 S12       30.31F WCI  -2
$$
MNZ001>005-007-008-013>017-022>024-027-028-010700-
   Northwest Minnesota

CITY           SKY/WX    TMP DP  RH WIND       PRES   REMARKS
BEMIDJI        LGT SNOW  17  14  89 SW6       30.10S WCI   8
ROSEAU         MOCLDY     9   1  72 SW8       30.09S WCI  -4
WARROAD        MOCLDY     9   3  78 W10       30.07S WCI  -6
THIEF RVR FALL PTCLDY     3  -2  78 SW7       30.13S WCI  -9
CROOKSTON      CLEAR      3   0  85 W7        30.17F WCI  -9
FOSSTON        PTCLDY     1  -2  85 SW6       30.14F WCI -10
DETROIT LAKES  FLURRIES  12   7  79 W8        30.17S WCI   1
MOORHEAD       CLEAR      7   3  85 SW7       30.22S WCI  -5
PARK RAPIDS    LGT SNOW  17  13  84 S12       30.11F FOG     WCI   4
MAHNOMEN       FAIR       5   1  83 SW6       30.15S WCI  -6
$$
MNZ006-009>011-018-025>026-010700-
   North Central Minnesota

CITY           SKY/WX    TMP DP  RH WIND       PRES   REMARKS
BAUDETTE       LGT SNOW  17  13  84 W12       30.04F FOG     WCI   4
FLAG ISLAND    LGT SNOW  14  10  85 W7        30.04R WCI   4
INTL FALLS     LGT SNOW  17  11  77 SW13G18   30.06F WCI   4
6HR MIN TEMP:  17; 6HR MAX TEMP:  22; 6HR PCP:  0.01;

WASKISH        LGT SNOW  18  14  86 SW9       30.09S WCI   6
BIG FORK       LGT SNOW  16  10  79 S10       30.10F WCI   3
LONGVILLE      FLURRIES  16  10  79 S7        30.13F WCI   6
GRAND RAPIDS   CLOUDY    12   9  85 S13       30.12F WCI  -3
CRANE LAKE     CLOUDY    14   7  73 S8G16     30.13F WCI   3
ORR            FLURRIES  12   7  79 S8        30.09S WCI   1
COOK           FLURRIES  12   9  85 S8G17     30.12F WCI   1
WALKER         LGT SNOW  16  12  85 S10       30.11F WCI   3
$$
MNZ012-019>021-037-010700-
   Northeast Minnesota

CITY           SKY/WX    TMP DP  RH WIND       PRES   REMARKS
DULUTH         MOCLDY    11   2  67 SW15      30.17F WCI  -5
6HR MIN TEMP:  11; 6HR MAX TEMP:  18;

ELY            CLOUDY    12   5  73 S8        30.13F WCI   1
HIBBING        CLOUDY    14   5  67 S10G16    30.14F WCI   1
EVELETH        FLURRIES  12   5  73 SW9       30.15F WCI   0
DULUTH HARBOR  PTCLDY    14   3  62 SW10      30.26F WCI   1
SILVER BAY     MOCLDY    14   3  62 SW8       30.18F WCI   3
GRAND MARAIS     N/A     20  14  77 W10G33    30.21F WCI   9
G MARAIS ARPRT LGT SNOW  10   3  72 SW7       30.12F WCI   0
$$
MNZ029>031-032-039>041-046>048-054>057-064-010700-
   West Central Minnesota

CITY           SKY/WX    TMP DP  RH WIND       PRES   REMARKS
FERGUS FALLS   FLURRIES  12   7  79 NW12      30.24S WCI  -2
MORRIS         FLURRIES  19  16  86 NW17      30.19S WCI   4
ALEXANDRIA     CLOUDY    16  12  84 SW10      30.16F WCI   4
ELBOW LAKE     FLURRIES  15  10  82 NW14      30.19R WCI   0
WADENA         FLURRIES  16  12  86 SW9       30.14S WCI   4
APPLETON       FLURRIES  18  12  79 W5        30.21R WCI  11
BENSON         MOCLDY    16  10  79 SW6       30.20F WCI   7
ORTONVILLE     FLURRIES  16  10  79 NW10      30.21S WCI   3
MADISON        PTCLDY    18  10  73 W6        30.21S WCI   9
WILLMAR        CLOUDY    18  12  79 S5        30.22S WCI  11
$$
MNZ033>034-036-042>043-049>051-058-059-010700-
   Central Minnesota

CITY           SKY/WX    TMP DP  RH WIND       PRES   REMARKS
ST CLOUD       CLOUDY    13   8  81 S10       30.23F WCI   0
6HR MIN TEMP:  12; 6HR MAX TEMP:  18;

SAUK CENTRE    CLOUDY    16  12  84 S9        30.18F WCI   4
PAYNESVILLE    CLOUDY    14  11  88 SE10      30.21F WCI   1
PINE RIVER     LGT SNOW  16  10  79 S8        30.17F WCI   5
BRAINERD       CLOUDY    13   9  84 S10       30.18F WCI   0
STAPLES        FLURRIES  16  12  86 S9        30.15F WCI   4
LONG PRAIRIE   FLURRIES  16  12  86 S10       30.17F WCI   3
LITTLE FALLS   LGT SNOW  14  10  85 S6        30.20F WCI   5
LITCHFIELD     CLOUDY    16  12  86 S6        30.22F WCI   7
MAPLE LAKE     CLOUDY    15  11  83 S7        30.25F WCI   5
$$
MNZ037-044-045-052-053-010700-
   East Central Minnesota

CITY           SKY/WX    TMP DP  RH WIND       PRES   REMARKS
PRINCETON      CLOUDY    14   7  73 S9        30.24F WCI   2
MORA           CLOUDY    12   5  73 S6        30.26F WCI   3
CAMBRIDGE      CLOUDY    12   3  67 S7        30.25F WCI   2
RUSH CITY      CLOUDY    10   3  74 S6        30.27F WCI   0
MOOSE LAKE     FLURRIES  10   3  72 S9        30.20F WCI  -2
HINCKLEY       FLURRIES  12   5  73 S6        30.25F WCI   3
CLOQUET        CLOUDY    10   1  67 S9        30.19F WCI  -2
MCGREGOR       CLOUDY    14  10  85 S10       30.19F WCI   1
$$
MNZ071>073-080-081-089-090-097-098-010700-
   Southwest Minnesota

CITY           SKY/WX    TMP DP  RH WIND       PRES   REMARKS
MONTEVIDEO     PTCLDY    16  12  86 W9        30.21F WCI   4
GRANITE FALLS  MOCLDY    18  13  80 SW12      30.23S WCI   6
CANBY          PTCLDY    17  11  77 W9        30.21S WCI   6
MARSHALL       FAIR      18  10  73 SW22G29   30.21S WCI   0
REDWOOD FALLS  MOCLDY    18  12  77 S14       30.23F WCI   4
OLIVIA         MOCLDY    16  12  86 S12       30.21F WCI   3
PIPESTONE      PTCLDY    12   9  85 SW12      30.20S WCI  -2
WINDOM         CLEAR     16  10  79 S10G16    30.24F WCI   3
WORTHINGTON    PTCLDY    25   9  50 SW15G23   30.25S WCI  12
JACKSON        CLEAR     14  10  85 S14       30.26S WCI  -1
TRACY          PTCLDY    18  13  80 SW20G25   30.21S WCI   2
SLAYTON        CLEAR     15  11  85 SW23      30.20F WCI  -4
$$
MNZ065>067-074>077-082>085-091>093-010700-
   South Central Minnesota

CITY           SKY/WX    TMP DP  RH WIND       PRES   REMARKS
MANKATO        CLEAR     10   3  72 S8        30.28F WCI  -1
NEW ULM        CLOUDY    12   9  85 S12       30.26F WCI  -2
ST JAMES       PTCLDY    16  12  86 S10       30.28S WCI   3
FAIRMONT       CLEAR     12   9  85 S12       30.27S WCI  -2
GLENCOE        CLOUDY    14  10  85 S9        30.26F WCI   2
FARIBAULT      PTCLDY    12   9  85 S10       30.30F WCI  -1
OWATONNA       CLOUDY    12   9  85 S16       30.29F WCI  -4
WASECA         CLOUDY    12   9  85 S17       30.31F WCI  -5
ALBERT LEA     CLOUDY    12   9  85 S8        30.30F WCI   1
$$
MNZ078>079-086>088-094>096-010700-
   Southeast Minnesota

CITY           SKY/WX    TMP DP  RH WIND       PRES   REMARKS
ROCHESTER      CLOUDY     8   4  83 S14       30.31F FOG     WCI  -8
6HR MIN TEMP:   7; 6HR MAX TEMP:  11; 6HR PCP: TRACE;

RED WING       FLURRIES  14   5  67 S10       30.34F WCI   1
STANTON        CLOUDY    16   9  75 S10G18    30.30F WCI   3
DODGE CENTER   CLOUDY     9   7  92 S17       30.29F WCI -10
WINONA         FLURRIES  14   5  67 S3        30.41F
AUSTIN         FLURRIES  10   7  85 S12       30.32F WCI  -4
PRESTON        LGT SNOW   8   4  84 S12       30.35F WCI  -7
$$
ABBREVIATIONS USED IN REMARKS
   TC - TEMPERATURES IN CELSIUS
  WCI - WIND CHILL INDEX
   HX - HEAT INDEX
  VSB - VISIBILITY
$$



USA.gov is the U.S. government's official web portal to all federal, state and local government web resources and services.